Regional Weather Roundup
Issued by NWS

Home | Current Version | Previous Version | Text Only | Print | Product List | Glossary On
Versions: 1 2 3 4 5 6 7 8 9 10 11 12 13 14 15 16 17 18 19 20 21 22 23 24 25 26 27 28 29 30 31 32 33 34 35 36 37 38 39 40 41 42 43 44 45 46 47 48 49 50
000
ASUS45 KSLC 222110
RWRUT

UTAH REGIONAL WEATHER ROUNDUP
NATIONAL WEATHER SERVICE SALT LAKE CITY UT
300 PM MDT FRI MAY 22 2015

UTZ001>011-023>025-222200-

NORTHERN UTAH

CITY           SKY/WX    TMP DP  RH WIND       PRES   REMARKS
BRIGHAM CITY   CLOUDY    61  47  59 S9        29.88S
HILL AFB       PTSUNNY   57  46  66 VRB5      29.91R
LOGAN          SUNNY     65  43  44 CALM      29.87F
OGDEN          CLOUDY    60  47  61 NW3       29.90R
PROVO AIRPORT  CLOUDY    61  39  44 CALM      29.91S
SALT LAKE CITY CLOUDY    63  42  46 NW13      29.88S
VERNAL         CLOUDY    57  38  48 S7        29.93F
WENDOVER       CLOUDY    61  39  44 W7        29.88F
HEBER CITY     CLOUDY    52  41  66 CALM      29.95F
WEST JORDAN    PTSUNNY   59  39  47 SW10      29.91S

$$

UTZ012>022-026-027-222200-

SOUTHERN/CENTRAL UTAH

CITY           SKY/WX    TMP DP  RH WIND       PRES   REMARKS
BLANDING       PTSUNNY   68  19  15 S25G31    29.99F
BRYCE CANYON   PTSUNNY   56  20  24 SE20G28   29.96S
CEDAR CITY     CLOUDY    58  30  34 SE6       29.89F
DELTA          CLOUDY    59  37  44 W22G28    29.90R
HANKSVILLE     PTSUNNY   73  25  16 S17G29    29.83F
MILFORD        CLOUDY    60  37  42 N15       29.88S
MOAB/CYNLANDS  MOSUNNY   75  27  17 S18G26    29.80F
PRICE          LGT RAIN  51  36  56 NW17G26   29.96R
ST GEORGE      CLOUDY    63  39  42 S29G37    29.88R
KANAB          CLOUDY    54  37  54 SW16G24   29.99R

$$

REGIONAL REPORTS     COLORADO/ARIZONA

CITY           SKY/WX    TMP DP  RH WIND       PRES   REMARKS
CRAIG, CO      PTSUNNY   61  41  47 W5        29.95F
GRAND JUNCTION PTSUNNY   64  37  36 N9        29.88F
RIFLE          CLOUDY    57  40  52 W7        29.94S
MONTROSE       PTSUNNY   65  29  25 VRB5      29.91F
CORTEZ         PTSUNNY   63  31  30 VRB7G29   29.95S
PAGE, AZ       NOT AVBL
GRAND CANYON   NOT AVBL
KINGMAN        PTSUNNY   61  35  37 SW23G29   29.89S
FLAGSTAFF      CLOUDY    49  28  44 S18G33    30.00R

$$

REGIONAL REPORTS    NEVADA/IDAHO/WYOMING

CITY           SKY/WX    TMP DP  RH WIND       PRES   REMARKS
LAS VEGAS, NV  PTSUNNY   70  40  33 W12       29.79S
ELY            CLOUDY    58  33  39 SW12      29.94F
ELKO           CLOUDY    58  39  49 NW14      29.91S
POCATELLO, ID  PTSUNNY   65  44  46 W7        29.88F
BURLEY         CLOUDY    59  50  72 W10       29.86F
EVANSTON, WY   CLOUDY    51  38  60 NW14      29.96S
ROCK SPRINGS   CLOUDY    50  41  71 W9        29.97F
KEMMERER       CLOUDY    48  36  61 NW16G22   29.98R

$$


USA.gov is the U.S. government's official web portal to all federal, state and local government web resources and services.